Regional Weather Roundup
Issued by NWS

Home | Current Version | Previous Version | Text Only | Print | Product List | Glossary Off
Versions: 1 2 3 4 5 6 7 8 9 10 11 12 13 14 15 16 17 18 19 20 21 22 23 24 25 26 27 28 29 30 31 32 33 34 35 36 37 38 39 40 41 42 43 44 45 46 47 48 49 50

000
ASUS43 KIND 261109
RWRIN

WEATHER ROUNDUP FOR INDIANA
NATIONAL WEATHER SERVICE INDIANAPOLIS IN
700 AM EDT MON JUN 26 2017

NOTE: "FAIR" INDICATES FEW OR NO CLOUDS BELOW 12,000 FEET WITH NO
SIGNIFICANT WEATHER AND/OR OBSTRUCTIONS TO VISIBILITY.

* - STATION DOES NOT REPORT WEATHER SUCH AS PRECIPITATION OR FOG.

+ - STATION NOT QUALITY CONTROLLED BY THE NATIONAL WEATHER SERVICE.
    USE DATA WITH CAUTION...ESPECIALLY DEWPOINT AND RELATIVE
    HUMIDITY OBSERVATIONS.

INZ001>003-010>013-019-020-261200-
NORTHWEST INDIANA

CITY           SKY/WX    TMP DP  RH WIND       PRES   REMARKS
GARY /AIRPORT/ PTCLDY    52  48  87 W7        30.13R
KNOX *+        CLEAR     50  45  81 SW3       30.12R
LA PORTE +     CLEAR     52  49  89 W5        30.12R
MICHIGAN CITY+ CLEAR     52  50  93 SW6       30.12R
MONTICELLO +   CLEAR     53  49  86 CALM      30.14R
VALPARAISO     CLEAR     54  50  86 SW6       30.12R

$$

LMZ046-743>745-261200-
SOUTHERN LAKE MICHIGAN

STATION/POSITION TIME  TEMP    WIND        PRES    WAVE
                       AIR SEA DIR/SP/G            HT
                 (UTC) (F)     (DEG/KT/KT) (MB)    (FT)
BURNS HARBOR     1040   58     240/  7/ 10 1020.0R
MICHIGAN CITY    1040   58     210/ 10/ 13   N/A
5NW MICH CITY    1100   62 66  280/ 10/ 14   N/A     3

$$

INZ004-005-014>016-021>024-261200-
NORTH CENTRAL INDIANA

CITY           SKY/WX    TMP DP  RH WIND       PRES   REMARKS
ELKHART        CLEAR     54  50  87 CALM      30.09
GOSHEN         CLEAR     54  49  83 W7        30.10R
LOGANSPORT +   CLEAR     50  48  93 W6        30.14S
PERU/GRISSOM   CLEAR     53  52  94 W6        30.13R
ROCHESTER +    CLEAR     54  50  87 W6        30.13S
SOUTH BEND     PTCLDY    53  52  96 SW6       30.11R
WARSAW +       MOCLDY    54  48  82 W7        30.11R

$$

INZ006>009-017-018-025>027-261200-
NORTHEAST INDIANA

CITY           SKY/WX    TMP DP  RH WIND       PRES   REMARKS
AUBURN +       CLEAR     54  48  82 SW5       30.10R
FORT WAYNE     PTCLDY    56  49  77 W8        30.11S
HUNTINGTON +   CLEAR     54  50  87 W7        30.12R
KENDALLVILLE + CLEAR     53  51  92 W3        30.10R

$$

INZ028-029-035-036-043>045-051>053-261200-
WEST CENTRAL INDIANA

CITY           SKY/WX    TMP DP  RH WIND       PRES   REMARKS
CRAWFORDSVL +  PTCLDY    49  49 100 CALM      30.16S
GREENCASTLE +  PTCLDY    50  48  93 CALM      30.18R
LAFAYETTE      PTCLDY    50  50 100 W3        30.15R
TERRE HAUTE    PTCLDY    53  49  86 CALM      30.17S

$$

INZ030>032-037>040-046>048-054>057-064-065-261200-
CENTRAL INDIANA

CITY           SKY/WX    TMP DP  RH WIND       PRES   REMARKS
CP ATTERBURY + CLEAR     50  48  93 CALM      30.17S
COLUMBUS       CLEAR     54  48  82 CALM      30.17
FRANKFORT +    PTCLDY    54  51  87 W6        30.16S
GREENWOOD *+   MOCLDY    54  49  86 CALM      30.17R
INDIANAPOLIS   PTCLDY    54  49  83 W5        30.16R
-EAGLE CREEK   PTCLDY    56  49  77 VRB5      30.15S
KOKOMO +       PTCLDY    55  50  83 W7        30.14R
MT COMFORT *+  CLEAR     52  48  87 W7        30.16R
SHELBYVILLE    PTCLDY    56  49  77 W7        30.15R
ZIONSVILLE +   CLEAR     52  49  90 SW6       30.16S

$$

INZ033-034-041-042-049-050-058-059-261200-
EAST CENTRAL INDIANA

CITY           SKY/WX    TMP DP  RH WIND       PRES   REMARKS
MUNCIE         CLEAR     56  50  80 W6        30.14R
RICHMOND +     CLEAR     52  48  87 W5        30.15S

$$

INZ060-061-067>069-081>083-085>088-261200-
SOUTHWEST INDIANA

CITY           SKY/WX    TMP DP  RH WIND       PRES   REMARKS
EVANSVILLE     CLEAR     54  51  90 SW3       30.20R
HUNTINGBURG *+ CLEAR     54  52  93 CALM      30.20R
WASHINGTON +   CLEAR     52  50  93 CALM      30.19R

$$

INZ062-063-066-070>080-084-089>092-261200-
SOUTH CENTRAL AND SOUTHEAST INDIANA

CITY           SKY/WX    TMP DP  RH WIND       PRES   REMARKS
BEDFORD +      CLEAR     52  48  87 CALM      30.18R
BLOOMINGTON    PTCLDY    50  47  89 CALM      30.18R
MADISON *+     CLEAR     54  52  94 CALM      30.19S
NORTH VERNON + CLEAR     52  50  93 CALM      30.17S
SEYMOUR +      CLEAR    N/A N/A N/A CALM      30.17R

$$





USA.gov is the U.S. government's official web portal to all federal, state and local government web resources and services.